Regional Weather Roundup
Issued by NWS

Home | Current Version | Previous Version | Text Only | Print | Product List | Glossary On
Versions: 1 2 3 4 5 6 7 8 9 10 11 12 13 14 15 16 17 18 19 20 21 22 23 24 25 26 27 28 29 30 31 32 33 34 35 36 37 38 39 40 41 42 43 44 45 46 47 48 49 50
000
ASUS43 KLMK 250102
RWRKY
KENTUCKY REGIONAL WEATHER ROUNDUP
NATIONAL WEATHER SERVICE LOUISVILLE KY
900 PM EDT FRI APR 24 2015

NOTE "FAIR" INDICATES FEW OR NO CLOUDS BELOW 12,000 FEET
WITH NO SIGNIFICANT WEATHER AND/OR OBSTRUCTIONS TO VISIBILITY.

KYZ001>023-026-027-061>063-070>075-250200-
WESTERN AND SOUTH CENTRAL KENTUCKY

CITY           SKY/WX    TMP DP  RH WIND       PRES   REMARKS
PADUCAH        CLOUDY    58  42  55 SE8       29.85F
HENDERSON      CLOUDY    55  39  54 SE8       29.89F
OWENSBORO      CLOUDY    59  39  47 S6        29.92F
HOPKINSVILLE   DRIZZLE   59  39  47 SE7       29.89F
BOWLING GREEN  CLOUDY    62  36  37 SW8       29.92F
GLASGOW        NOT AVBL
$$

KYZ024-025-028>034-038-045-046-053-250200-
NORTH CENTRAL KENTUCKY

CITY           SKY/WX    TMP DP  RH WIND       PRES   REMARKS
LOUISVILLE/SDF CLOUDY    62  28  27 SE7       29.93R
LOUISVILLE/LOU CLOUDY    61  28  28 SE3       29.93S
FORT KNOX      NOT AVBL
$$

KYZ035>037-039>044-047>052-055>060-089>105-250200-
NORTHEAST KENTUCKY

CITY           SKY/WX    TMP DP  RH WIND       PRES   REMARKS
LEXINGTON      CLOUDY    58  28  32 E3        29.95F
COVINGTON      CLOUDY    56  34  43 S7        29.95F
FRANKFORT      CLOUDY    56  32  40 E6        29.93F
$$

KYZ054-064>069-076>088-106>120-250200-
SOUTHEAST KENTUCKY

CITY           SKY/WX    TMP DP  RH WIND       PRES   REMARKS
JACKSON        CLOUDY    59  17  19 CALM      29.96F
LONDON         CLOUDY    60  28  29 CALM      29.95F
SOMERSET       NOT AVBL
MIDDLESBORO    CLOUDY    59  36  41 CALM      29.97S
MONTICELLO     CLOUDY    57  42  57 CALM      29.96F
$$



USA.gov is the U.S. government's official web portal to all federal, state and local government web resources and services.